Location: Famechon
(49.7599°N, 2.0615°E)
Time: 15:33:06
(UTC+00:00)

Cosmos 1741 Rocket - Pass Details

Date: 03 February 2023
Orbit: 761 x 781 km, 74.0° (Epoch: 25 March)

Event Time Altitude Azimuth Distance (km) Brightness Sun altitude
Rises 18:30:41 0° 179° (S) 3,248 7.3 -16.5°
Reaches altitude 10° 18:33:10 10° 172° (S) 2,327 6.5 -16.9°
Maximum altitude 18:38:04 40° 104° (ESE) 1,139 4.4 -17.7°
Enters shadow 18:40:12 28° 57° (ENE) 1,445 4.9 -18.0°
